Blue Canyon, CA

5:11 PM PDT on April 30, 2017 (GMT -0700)
Blue Canyon-Nyack

Weather History for KBLU - March, 2013

Change the Weather History Date:

Sunday, March 31, 2013

  Actual Average Record
Temperature  
Mean Temperature 40 °F -  
Max Temperature 45 °F 49 °F 72 °F (1966)
Min Temperature 35 °F 34 °F 19 °F (1999)
Degree Days  
Heating Degree Days 25    
Moisture  
Dew Point 38 °F    
Average Humidity 94    
Maximum Humidity 100    
Minimum Humidity 76    
Precipitation  
Precipitation 0.77 in - - ()
Sea Level Pressure  
Sea Level Pressure 30.06 in    
Wind  
Wind Speed 5 mph (South)    
Max Wind Speed 14 mph    
Max Gust Speed 24 mph    
Visibility 6 miles    
Events Fog , Rain    
Averages and records for this station are not official NWS values.
T = Trace of Precipitation, MM = Missing Value Source: NWS Daily Summary

Daily Weather History Graph

Daily Weather History Graph

Search for Another Location

Airport or City:

Trip Planner

Search our weather history database for the weather conditions in past years. The results will help you decide how hot, cold, wet, or windy it might be!

Date:

Astronomy

Mar. 31, 2013 Rise Set
Actual Time 6:48 AM PDT 7:26 PM PDT
Civil Twilight 6:21 AM PDT 7:53 PM PDT
Nautical Twilight 5:49 AM PDT 8:24 PM PDT
Astronomical Twilight 5:16 AM PDT 8:57 PM PDT
Moon No Moon Rise 9:42 AM PDT (3/31)
Length of Visible Light 13h 31m
Length of Day
12h 37m
Waning Gibbous, 76% of the Moon is Illuminated
Mar 31
Waning Gibbous
Apr 2
Last Quarter
Apr 10
New
Apr 18
First Quarter
Apr 25
Full

Hourly Weather History & Observations

Time (PDT) Temp. Windchill Dew Point Humidity Pressure Visibility Wind Dir Wind Speed Gust Speed Precip Events Conditions
12:11 AM 44.6 °F 41.4 °F 44.6 °F 100% 30.06 in 2.5 mi WSW 5.8 mph - 0.00 in   Overcast
12:13 AM 44.6 °F 42.2 °F 44.6 °F 100% 30.06 in 1.0 mi WSW 4.6 mph - 0.00 in   Overcast
12:17 AM 44.6 °F 42.2 °F 44.6 °F 100% 30.06 in 0.2 mi SW 4.6 mph - 0.00 in Fog Fog
12:24 AM 44.6 °F 43.1 °F 44.6 °F 100% 30.06 in 0.2 mi West 3.5 mph - 0.00 in Fog Fog
12:52 AM 45.0 °F 42.6 °F 45.0 °F 100% 29.93 in 0.2 mi SSW 4.6 mph - 0.00 in Fog Fog
1:52 AM 42.1 °F 37.1 °F 41.0 °F 96% 29.95 in 0.2 mi SW 8.1 mph - 0.07 in Fog , Rain Light Rain
2:04 AM 41.0 °F 35.2 °F 39.2 °F 93% 30.09 in 1.0 mi SSW 9.2 mph 19.6 mph 0.01 in Rain Light Rain
2:20 AM 39.2 °F 33.6 °F 39.2 °F 100% 30.08 in 1.0 mi SW 8.1 mph - 0.05 in Rain Light Rain
2:27 AM 41.0 °F 37.1 °F 39.2 °F 93% 30.08 in 0.5 mi Variable 5.8 mph - 0.06 in Fog , Rain Light Rain
2:35 AM 41.0 °F 39.0 °F 41.0 °F 100% 30.08 in 0.2 mi Variable 3.5 mph - 0.06 in Fog , Rain Light Rain
2:47 AM 41.0 °F 38.0 °F 41.0 °F 100% 30.08 in 0.2 mi West 4.6 mph - 0.08 in Fog , Rain Rain
2:52 AM 41.0 °F 39.0 °F 39.9 °F 96% 29.96 in 0.5 mi Variable 3.5 mph - 0.09 in Fog , Rain Rain
3:15 AM 39.2 °F 37.0 °F 39.2 °F 100% 30.08 in 1.0 mi Variable 3.5 mph - 0.08 in Rain Rain
3:18 AM 39.2 °F 34.2 °F 39.2 °F 100% 30.08 in 2.0 mi WNW 6.9 mph - 0.09 in Rain Rain
3:25 AM 39.2 °F 34.2 °F 39.2 °F 100% 30.07 in 2.0 mi NNW 6.9 mph - 0.10 in Rain Light Rain
3:34 AM 39.2 °F 35.0 °F 39.2 °F 100% 30.07 in 5.0 mi NNW 5.8 mph - 0.10 in Rain Light Rain
3:52 AM 39.0 °F - 37.9 °F 96% 29.99 in 10.0 mi Calm Calm - 0.12 in Rain Light Rain
4:43 AM 39.2 °F - 37.4 °F 93% 30.06 in 10.0 mi Calm Calm - 0.11 in Rain Light Rain
4:52 AM 39.0 °F 35.7 °F 37.9 °F 96% 30.00 in 10.0 mi SSE 4.6 mph - 0.11 in   Overcast
5:04 AM 39.2 °F 37.0 °F 37.4 °F 93% 30.08 in 10.0 mi SSE 3.5 mph - 0.01 in Rain Light Rain
5:12 AM 39.2 °F 37.0 °F 37.4 °F 93% 30.08 in 6.0 mi Variable 3.5 mph - 0.01 in Rain Light Rain
5:52 AM 37.9 °F 31.5 °F 37.0 °F 97% 30.04 in 4.0 mi SSE 9.2 mph - 0.10 in Rain Rain
6:13 AM 37.4 °F 32.8 °F 35.6 °F 93% 30.07 in 10.0 mi ENE 5.8 mph - 0.05 in Rain Light Rain
6:52 AM 37.0 °F 34.5 °F 37.0 °F 100% 30.03 in 10.0 mi Variable 3.5 mph - 0.05 in   Overcast
7:10 AM 37.4 °F 32.1 °F 37.4 °F 100% 30.09 in 4.0 mi Variable 6.9 mph - 0.01 in Rain Light Rain
7:35 AM 37.4 °F 33.8 °F 37.4 °F 100% 30.09 in 10.0 mi SE 4.6 mph - 0.02 in   Overcast
7:52 AM 37.9 °F 33.5 °F 37.0 °F 97% 30.03 in 10.0 mi SE 5.8 mph - 0.02 in   Overcast
8:05 AM 37.4 °F 32.8 °F 37.4 °F 100% 30.09 in 10.0 mi SE 5.8 mph - N/A   Overcast
8:38 AM 37.4 °F 34.9 °F 37.4 °F 100% 30.09 in 10.0 mi SE 3.5 mph - N/A   Overcast
8:52 AM 39.0 °F 34.8 °F 37.9 °F 96% 30.03 in 10.0 mi Variable 5.8 mph - N/A   Overcast
9:52 AM 39.9 °F 35.1 °F 37.0 °F 89% 30.03 in 10.0 mi SE 6.9 mph - 0.00 in   Mostly Cloudy
10:06 AM 39.2 °F 33.6 °F 37.4 °F 93% 30.11 in 10.0 mi SSE 8.1 mph - N/A   Mostly Cloudy
10:52 AM 39.9 °F 32.9 °F 35.1 °F 83% 30.05 in 10.0 mi South 11.5 mph - N/A   Overcast
11:52 AM 41.0 °F 35.8 °F 36.0 °F 82% 30.05 in 10.0 mi South 8.1 mph - N/A   Overcast
12:26 PM 41.0 °F 37.1 °F 37.4 °F 87% 30.11 in 10.0 mi Variable 5.8 mph - 0.00 in   Overcast
12:36 PM 42.8 °F 37.5 °F 37.4 °F 81% 30.11 in 9.0 mi South 9.2 mph - 0.00 in   Overcast
12:44 PM 39.2 °F 32.0 °F 37.4 °F 93% 30.11 in 6.0 mi South 11.5 mph - 0.01 in Rain Light Rain
12:49 PM 41.0 °F 34.3 °F 39.2 °F 93% 30.11 in 10.0 mi South 11.5 mph - 0.01 in Rain Light Rain
12:52 PM 39.9 °F 33.4 °F 37.9 °F 93% 30.05 in 9.0 mi South 10.4 mph - 0.01 in Rain Light Rain
1:14 PM 42.8 °F 38.0 °F 37.4 °F 81% 30.10 in 10.0 mi SSW 8.1 mph - 0.00 in   Mostly Cloudy
1:31 PM 42.8 °F 37.0 °F 37.4 °F 81% 30.10 in 7.0 mi South 10.4 mph - 0.00 in Rain Light Rain
1:42 PM 39.2 °F 32.5 °F 37.4 °F 93% 30.10 in 7.0 mi South 10.4 mph - 0.01 in Rain Light Rain
1:52 PM 39.9 °F - 37.9 °F 93% 30.05 in 5.0 mi Calm Calm - 0.03 in Rain Light Rain
1:59 PM 41.0 °F - 39.2 °F 93% 30.10 in 10.0 mi Calm Calm - 0.01 in Rain Light Rain
2:18 PM 42.8 °F 38.0 °F 39.2 °F 87% 30.10 in 10.0 mi South 8.1 mph - 0.01 in   Overcast
2:52 PM 42.1 °F 37.7 °F 37.9 °F 85% 30.03 in 10.0 mi South 6.9 mph - 0.01 in   Mostly Cloudy
3:04 PM 39.2 °F 31.2 °F 37.4 °F 93% 30.09 in 3.0 mi South 13.8 mph 24.2 mph 0.00 in Rain Rain
3:22 PM 39.2 °F 33.6 °F 39.2 °F 100% 30.09 in 9.0 mi SSE 8.1 mph - 0.02 in Rain Light Rain
3:35 PM 39.2 °F 35.0 °F 37.4 °F 93% 30.08 in 10.0 mi Variable 5.8 mph - 0.02 in   Overcast
3:52 PM 42.1 °F - 37.9 °F 85% 30.02 in 10.0 mi Calm Calm - 0.02 in   Mostly Cloudy
4:52 PM 44.1 °F 40.1 °F 37.9 °F 79% 30.00 in 10.0 mi SSE 6.9 mph - N/A   Partly Cloudy
5:52 PM 44.1 °F 42.5 °F 37.0 °F 76% 30.01 in 10.0 mi SW 3.5 mph - N/A   Mostly Cloudy
6:07 PM 42.8 °F 41.1 °F 37.4 °F 81% 30.06 in 10.0 mi SSW 3.5 mph - N/A   Overcast
6:37 PM 37.4 °F 33.8 °F 35.6 °F 93% 30.06 in 2.0 mi Variable 4.6 mph - 0.05 in Rain Rain
6:44 PM 39.2 °F 35.0 °F 37.4 °F 93% 30.06 in 5.0 mi Variable 5.8 mph - 0.06 in Rain Light Rain
6:52 PM 39.0 °F 36.8 °F 37.0 °F 93% 30.04 in 10.0 mi Variable 3.5 mph - 0.07 in Rain Light Rain
7:24 PM 39.2 °F - 37.4 °F 93% 30.06 in 10.0 mi Calm Calm - 0.01 in Rain Light Rain
7:52 PM 37.9 °F - 36.0 °F 93% 30.04 in 10.0 mi Calm Calm - 0.01 in   Mostly Cloudy
8:31 PM 37.4 °F 34.9 °F 35.6 °F 93% 30.08 in 1.2 mi SW 3.5 mph - N/A   Mostly Cloudy
8:38 PM 37.4 °F 34.9 °F 37.4 °F 100% 30.08 in 0.2 mi SSW 3.5 mph - N/A Fog Fog
8:44 PM 37.4 °F 34.9 °F 37.4 °F 100% 30.08 in 0.5 mi SW 3.5 mph - 0.00 in Fog , Rain Light Rain
8:49 PM 37.4 °F - 37.4 °F 100% 30.08 in 1.0 mi Calm Calm - 0.00 in Rain Light Rain
8:52 PM 37.9 °F 35.5 °F 37.9 °F 100% 30.05 in 1.0 mi Variable 3.5 mph - 0.00 in   Overcast
8:59 PM 37.4 °F 32.1 °F 37.4 °F 100% 30.08 in 0.8 mi WSW 6.9 mph - 0.00 in Rain Light Rain
9:01 PM 37.4 °F 31.4 °F 35.6 °F 93% 30.08 in 1.0 mi WSW 8.1 mph - 0.00 in Rain Light Rain
9:04 PM 37.4 °F 32.8 °F 35.6 °F 93% 30.08 in 2.0 mi Variable 5.8 mph - 0.01 in Rain Light Rain
9:07 PM 37.4 °F 32.8 °F 35.6 °F 93% 30.07 in 5.0 mi Variable 5.8 mph - 0.01 in Rain Light Rain
9:26 PM 35.6 °F 32.8 °F 35.6 °F 100% 30.07 in 10.0 mi NNW 3.5 mph - 0.02 in   Scattered Clouds
9:52 PM 36.0 °F 32.1 °F 34.0 °F 93% 30.05 in 9.0 mi East 4.6 mph - 0.02 in   Partly Cloudy
10:09 PM 35.6 °F 32.8 °F 35.6 °F 100% 30.08 in 10.0 mi ENE 3.5 mph - N/A   Partly Cloudy
10:52 PM 37.0 °F - 34.0 °F 89% 30.04 in 10.0 mi Calm Calm - N/A   Partly Cloudy
11:06 PM 37.4 °F - 35.6 °F 93% 30.07 in 10.0 mi Calm Calm - N/A   Mostly Cloudy
11:30 PM 37.4 °F 30.8 °F 35.6 °F 93% 30.08 in 2.5 mi SSE 9.2 mph 16.1 mph N/A   Overcast
11:32 PM 35.6 °F 28.6 °F 35.6 °F 100% 30.08 in 1.2 mi SSE 9.2 mph 16.1 mph 0.00 in Rain Light Rain
11:40 PM 35.6 °F 29.9 °F 35.6 °F 100% 30.08 in 0.5 mi SSE 6.9 mph - 0.01 in Fog , Rain Rain
11:49 PM 35.6 °F 32.8 °F 35.6 °F 100% 30.08 in 1.2 mi Variable 3.5 mph - 0.03 in Rain Light Rain
11:52 PM 36.0 °F - 36.0 °F 100% 30.04 in 1.8 mi Calm Calm - 0.04 in Rain Light Rain